SCP
0 0 0 0 0 0 0 0 0 0 0 0 0 0 0 0 0 0 0 0 0 1 1 1 1 1 1 1 1 1 0 0 1 1 0 0 0 0 0 0 0 0 0 0
0 0 0 0 0 0 0 0 0 0 0 0 0 0 0 0 0 0 0 0 0 1 1 1 1 1 1 1 1 1 1 1 1 0 0 0 0 0 0 0 0 0 0 0
0 0 0 0 0 0 0 0 0 0 0 0 0 0 0 0 0 0 0 0 0 1 1 1 1 1 1 1 1 1 1 1 1 0 0 0 0 0 0 0 0 0 0 0
0 0 0 0 0 0 0 0 0 0 0 0 0 0 0 0 0 0 0 0 0 0 1 1 1 1 1 1 1 1 1 1 0 0 0 0 0 0 0 0 0 0 0 0
0 0 0 0 0 0 0 0 0 0 0 0 0 0 0 0 0 0 0 0 0 0 0 1 1 1 1 1 1 1 1 0 0 0 0 0 0 0 0 0 0 0 0 0
0 0 0 0 0 0 0 0 0 0 0 0 0 0 0 0 0 0 0 0 0 0 0 0 1 1 1 1 1 1 1 0 0 0 0 0 0 0 0 0 0 0 0 0
0 0 0 0 0 0 0 0 0 0 0 0 0 0 0 0 0 0 0 0 0 0 0 0 0 0 1 1 1 0 0 0 0 0 0 0 0 0 0 0 0 0 0 0
0 0 0 0 0 0 0 0 0 0 0 0 0 0 0 0 0 0 0 0 0 0 0 0 0 0 0 0 0 0 0 0 0 0 0 0 0 0 0 0 0 0 0 0
0 0 0 0 0 0 0 0 0 0 0 0 0 0 0 0 0 0 0 0 0 0 0 0 0 0 0 0 0 0 0 0 0 0 0 0 0 0 0 0 0 0 0 0
0 0 0 0 0 0 0 0 0 0 0 0 0 0 0 0 0 0 0 0 0 0 0 0 0 0 0 0 0 0 0 0 0 0 0 0 0 0 0 0 0 0 0 0
0 0 0 0 0 0 0 0 0 0 0 0 0 0 0 0 0 0 0 0 0 0 0 0 0 0 0 0 0 0 0 0 0 0 0 0 0 0 0 0 0 0 0 0
0 0 0 0 0 0 0 0 0 0 0 0 0 0 0 0 0 0 0 0 0 0 0 0 0 0 0 0 0 0 0 0 0 0 0 0 0 0 0 0 0 0 0 0
0 0 0 0 0 0 0 0 0 0 0 0 0 0 0 0 0 0 0 0 0 0 0 0 0 0 0 0 0 0 0 0 0 0 0 0 0 0 0 0 0 0 0 0
0 0 0 0 0 0 0 0 0 0 0 0 0 0 0 0 0 0 0 0 0 0 0 0 0 0 0 0 0 0 0 0 0 0 0 0 0 0 0 0 0 0 0 0
0 0 0 0 0 0 0 0 0 0 0 0 0 0 0 0 0 0 0 0 0 0 0 0 0 0 0 0 0 0 0 0 0 0 0 0 0 0 0 0 0 0 0 0
0 0 0 0 0 0 0 0 0 0 0 0 0 0 0 0 0 0 0 0 0 0 0 0 0 0 0 0 0 0 0 0 0 0 0 0 0 0 0 0 0 0 0 0
0 0 0 0 0 0 0 0 0 0 0 0 0 0 0 0 0 0 0 0 0 0 0 0 0 0 0 0 0 0 0 0 0 0 0 0 0 0 0 0 0 0 0 0
0 0 0 0 0 0 0 0 0 0 0 0 0 0 0 0 0 0 0 0 0 0 0 0 0 0 0 0 0 0 0 0 0 0 0 0 0 0 0 0 0 0 0 0
0 0 0 0 0 0 0 0 0 0 0 0 0 0 0 0 0 0 0 0 0 0 0 0 0 0 0 0 0 0 0 0 0 0 0 0 0 0 0 0 0 0 0 0
0 0 0 0 0 0 0 0 0 0 0 0 0 0 0 0 0 0 0 0 0 0 0 0 0 0 0 0 0 0 0 0 0 0 0 0 0 0 0 0 0 0 0 0
0 0 0 0 0 0 0 0 0 0 0 0 0 0 0 0 0 0 0 0 0 0 0 0 0 0 0 0 0 0 0 0 0 0 0 0 0 0 0 0 0 0 0 0
0 0 0 0 0 0 0 0 0 0 0 0 0 0 0 0 0 0 0 0 0 0 0 0 0 0 0 0 0 0 0 0 0 0 0 0 0 0 0 0 0 0 0 0
0 0 0 0 0 0 0 0 0 0 0 0 0 0 0 0 0 0 0 0 0 0 0 0 0 0 0 0 0 0 0 0 0 0 0 0 0 0 0 0 0 0 0 0
0 0 0 0 0 0 0 0 0 0 0 0 0 0 0 0 0 0 0 0 0 0 0 0 0 0 0 0 0 0 0 0 0 0 0 0 0 0 0 0 0 0 0 0
0 0 0 0 0 0 0 0 0 0 0 0 0 0 0 0 0 0 0 0 0 0 0 0 0 0 0 0 0 0 0 0 0 0 0 0 0 0 0 0 0 0 0 0
0 0 0 0 0 0 0 0 0 0 0 0 0 0 0 0 0 0 0 0 0 0 0 0 0 0 0 0 0 0 0 0 0 0 0 0 0 0 0 0 0 0 0 0
Wind_Speed
4 4 5 7 7 5 3 2 4 6 4 2 2 4 4 2 4 5 6 7 9 8 6 6 7 8 9 9 10 10 9 8 7 6 6 6 5 4 4 5 7 7 6 7
4 4 7 6 5 4 3 3 5 6 2 0 2 4 3 1 4 5 7 8 8 6 6 7 8 9 10 10 10 9 10 10 9 7 6 4 4 4 4 4 5 7 8 8
7 5 5 6 4 4 4 5 5 5 4 3 2 5 3 2 0 1 3 4 5 8 8 8 8 8 8 9 10 10 10 10 10 8 5 4 4 3 4 5 5 6 8 8
5 6 4 4 5 7 5 7 6 3 1 3 1 2 6 2 2 3 3 3 5 5 6 7 8 8 8 8 8 7 8 9 10 10 9 9 8 7 6 5 5 5 7 7
7 5 6 7 7 8 7 3 3 2 3 0 2 2 8 3 3 5 5 4 4 4 5 7 8 8 6 6 7 7 7 8 8 9 10 9 7 5 4 5 6 6 6 6
6 4 6 8 6 7 4 5 6 5 5 0 2 3 7 4 6 5 4 4 4 4 4 5 5 5 5 6 6 6 7 7 7 8 8 9 8 7 7 7 7 6 4 4
2 4 4 4 2 1 5 6 4 4 3 5 2 2 9 7 5 5 5 4 4 4 5 6 6 6 6 6 6 7 7 7 8 9 9 9 8 8 9 8 8 6 5 4
4 5 5 5 8 6 6 10 8 5 5 4 2 4 8 4 3 3 3 3 3 3 4 6 6 6 6 7 7 7 8 7 7 8 8 7 8 6 6 7 7 7 6 5
8 6 4 4 5 10 7 5 7 7 2 0 4 6 9 2 2 1 1 1 3 4 5 5 6 6 6 7 8 8 8 7 7 7 6 6 7 6 6 6 6 5 5 5
9 4 3 1 4 3 7 9 6 7 6 2 3 4 5 5 4 2 1 2 2 4 4 5 6 6 6 6 5 6 6 6 6 6 6 6 6 6 6 5 6 6 6 6
6 4 2 2 3 5 5 5 6 5 5 7 3 7 6 6 4 3 3 3 3 4 5 5 5 5 5 5 5 5 5 4 5 5 5 5 5 6 5 5 6 6 6 6
5 6 2 3 3 2 5 7 8 7 4 4 5 8 3 3 2 2 2 1 2 3 3 4 4 4 4 5 5 4 4 4 4 4 4 5 5 5 6 5 5 6 6 6
7 7 3 4 4 2 2 3 4 6 6 5 5 7 2 2 1 0 0 0 1 2 2 3 3 4 4 4 4 4 4 4 3 4 4 4 4 5 6 5 5 6 6 6
7 6 7 9 7 4 2 3 5 7 5 5 6 6 3 2 1 2 1 1 0 2 3 3 3 4 4 3 3 3 3 4 4 4 4 4 4 5 5 5 5 5 6 6
6 5 3 3 3 4 3 3 5 4 7 8 7 5 4 2 1 0 1 1 2 2 2 2 3 3 3 3 3 3 3 3 4 4 3 3 3 4 4 4 4 4 5 5
4 5 3 1 1 4 3 2 4 3 3 3 2 2 1 1 2 3 3 3 3 3 2 1 1 2 3 4 4 4 4 4 4 4 3 3 3 4 4 4 4 5 5 4
3 5 4 1 0 3 1 1 2 3 2 4 4 4 1 2 3 3 2 3 3 2 2 1 1 2 3 3 4 4 4 5 5 3 3 3 4 5 4 5 5 5 4 4
5 4 4 3 3 3 4 1 2 4 2 1 2 2 2 3 3 3 3 3 4 4 3 2 1 1 2 3 3 4 4 5 5 4 3 3 4 5 5 5 5 5 4 4
3 6 5 4 4 1 2 0 2 3 0 0 3 4 4 4 4 4 6 5 4 3 3 2 2 1 2 3 4 5 5 5 5 4 4 3 5 5 5 5 5 4 5 4
5 5 6 4 4 6 5 1 0 3 1 1 3 4 3 2 2 1 4 5 6 5 3 3 3 3 3 3 5 6 5 4 4 4 4 4 5 5 5 5 5 4 4 4
4 4 4 4 3 4 2 3 1 5 5 1 3 3 2 1 2 2 3 4 5 5 5 4 5 4 3 3 5 6 5 3 3 4 4 5 5 5 5 5 4 5 5 5
4 4 3 4 3 5 2 1 3 3 0 2 3 3 4 5 5 4 4 5 5 6 6 6 6 6 5 4 5 6 4 4 5 6 6 5 5 5 5 6 5 5 5 6
2 4 4 4 4 1 1 0 1 1 2 2 3 4 6 6 5 4 4 5 5 6 6 5 6 7 7 6 6 6 5 5 7 8 7 7 7 6 5 6 5 5 4 4
0 1 2 1 1 0 1 2 3 3 3 3 4 5 6 6 5 5 5 5 5 6 5 6 7 8 7 7 7 6 5 6 8 8 7 7 8 7 7 6 5 5 4 4
2 2 2 1 1 1 1 3 3 5 6 6 6 6 6 8 7 6 6 6 6 6 5 6 7 8 8 8 8 7 7 7 9 8 8 8 8 8 9 9 8 7 6 5
2 4 5 5 5 4 2 2 3 5 5 6 7 8 7 7 8 8 7 6 6 6 6 8 8 8 8 8 8 8 7 8 9 9 8 6 6 7 7 9 10 16 13 15
Wind_Direction
130 111 188 196 183 182 176 221 276 273 284 316 288 284 290 209 182 190 194 194 199 206 199 186 184 176 178 178 177 183 188 189 177 175 182 183 190 184 189 191 184 181 185 186
82 232 214 181 174 176 197 258 280 295 337 298 292 303 309 203 196 197 199 206 203 188 186 182 175 176 182 182 181 186 188 184 184 184 181 177 173 180 195 197 186 183 187 188
176 223 178 167 178 190 217 212 240 267 339 6 17 336 327 318 6 201 205 208 199 188 190 187 184 183 183 184 185 188 187 183 183 173 166 161 157 155 174 189 190 192 189 188
210 232 186 188 202 179 242 223 215 245 360 303 28 291 292 296 295 253 235 219 215 204 191 188 183 184 193 191 182 181 184 183 181 171 176 178 185 189 188 184 187 183 187 186
219 199 184 207 213 178 215 208 194 215 166 310 356 165 283 319 274 256 242 231 223 210 193 187 188 190 189 175 171 177 180 183 178 176 182 184 191 190 169 169 176 182 186 186
219 211 194 206 208 189 179 78 55 50 79 183 252 172 270 249 235 257 246 229 222 206 189 179 175 164 164 160 158 164 171 178 176 180 187 189 189 180 170 176 180 182 182 183
254 252 227 185 162 143 121 98 39 8 22 246 263 198 249 252 239 234 242 240 227 195 180 174 170 170 169 166 165 166 174 184 184 187 193 192 191 186 186 183 183 180 183 186
187 265 232 189 179 174 167 142 156 183 209 267 315 237 255 263 266 258 238 224 203 187 181 181 176 173 175 174 172 174 187 190 188 192 196 189 185 186 190 186 181 184 187 186
176 239 267 216 177 146 139 165 159 128 138 28 286 288 301 286 309 304 245 183 181 184 175 176 173 172 176 178 178 180 187 189 190 192 189 184 182 184 184 179 179 178 175 173
157 207 281 273 90 69 141 142 109 122 144 212 283 278 261 276 266 266 223 202 189 179 176 177 179 181 178 178 174 172 179 187 185 183 186 184 185 185 180 176 181 180 179 175
143 160 309 38 141 165 110 106 109 114 147 153 213 264 234 229 228 228 235 215 192 189 188 180 179 177 169 162 162 167 171 172 174 180 184 179 179 177 175 182 187 184 180 177
146 129 200 264 267 177 145 154 143 146 187 165 167 259 287 222 225 216 237 238 200 197 190 175 166 158 159 162 163 165 165 171 177 174 174 178 174 169 174 183 185 181 181 180
135 120 106 347 341 22 108 143 138 122 117 146 163 257 335 31 34 12 200 292 211 182 167 153 149 157 163 164 163 163 165 170 166 161 165 167 170 174 179 181 180 179 178 176
117 113 155 186 208 191 160 154 145 125 140 179 208 239 296 348 354 347 12 345 264 173 158 155 165 168 163 160 163 164 166 163 159 157 163 171 176 176 173 172 172 174 171 169
106 126 161 189 180 154 152 162 157 156 171 174 212 214 256 266 237 292 23 47 68 82 113 158 175 168 157 153 158 159 158 148 148 150 160 177 172 159 153 156 158 156 154 159
75 125 125 76 105 126 101 86 140 134 143 159 145 230 290 8 75 67 52 58 62 61 70 91 156 163 165 167 168 158 150 139 132 142 153 150 149 147 145 144 141 140 134 130
78 112 112 162 246 92 91 247 155 144 150 154 181 214 133 89 69 63 55 59 56 49 59 89 134 180 177 178 167 163 151 137 132 139 141 133 130 128 132 133 123 121 122 122
118 100 110 124 117 170 237 295 110 112 69 64 138 141 139 121 93 59 44 54 47 30 22 14 20 147 158 154 144 138 132 135 135 137 137 133 130 129 123 118 117 113 107 109
118 125 111 114 133 155 272 58 122 131 269 28 133 118 106 113 86 53 36 39 39 28 17 356 356 75 120 136 140 130 131 136 136 139 139 137 132 127 125 126 124 118 115 111
54 83 109 119 139 204 224 251 263 114 252 209 141 140 140 99 86 67 29 27 22 16 17 25 33 57 90 109 124 125 129 130 138 140 135 131 132 132 133 129 118 111 112 112
51 53 100 131 162 241 273 305 105 158 228 178 139 139 133 115 140 117 56 36 25 20 23 39 50 52 62 98 112 117 120 127 125 113 110 110 116 120 119 114 112 114 112 105
145 133 150 136 161 229 337 58 158 200 349 97 111 111 108 106 97 83 66 51 36 34 37 47 57 50 46 69 96 100 99 98 100 100 97 93 90 99 105 106 101 103 108 103
159 174 171 176 195 243 348 75 327 122 113 102 110 116 120 113 104 85 70 60 48 46 49 53 66 61 51 52 74 86 76 90 95 91 91 90 83 78 83 95 100 96 95 99
337 120 126 131 206 301 34 46 34 63 92 101 112 118 118 115 108 94 83 72 61 55 56 62 70 67 57 52 61 72 78 88 92 89 88 89 87 80 71 67 72 78 80 92
195 145 127 145 180 111 48 57 59 70 81 89 90 95 108 114 107 100 89 78 72 64 57 65 73 74 66 59 59 62 72 85 87 85 83 81 82 84 77 67 55 62 54 75
199 177 171 200 199 165 156 104 90 95 91 95 97 89 84 97 104 99 90 82 79 72 65 66 65 66 64 63 60 57 69 85 92 88 82 81 84 86 88 90 75 57 66 66